HC

 

 

Hoosier Classic - 125 Mile Activation

Station: 125 Miles - T Race

Distance: 125 Miles

Release: 10-Sep-2021 07:15

Weather Release:    Arrival:

Wind at Release:     Wind at Arrival:

Temp at Release: °    Temp at Arrival: °

Lofts: 772

Birds: 2641

Clocked: 2490

Good Luck to Everyone!
Drops Pos Breeder Pigeon Name Color Sex Ent Arrival Speed To Win Elg Pd400LCGoldPlatinum
1 Fire Fly Farms - 0629-AU21-VK Astro Boy BWF C 1 09:33:23.02 1589.783 00:00:00 Yes
2 Lady D - 0005-ZA21-HOBY HOTSHOT BB H 1 09:33:26.32 1589.151 00:00:03 Yes
3 Schillings - IN 5156-AU21-VK Little Estelle's Pick BB H 1 09:34:23.96 1578.200 00:01:01 Yes
4 Romero Family Loft - IN 0945-AU21-DEF BB C 1 09:34:23.97 1578.198 00:01:01 Yes
5 Marengo Creek Farms - GA 3804-AU21-MCF BB H 1 09:34:27.35 1577.560 00:01:04 Yes
6 Palomar Raul Castaneda - JA 0005-IF21-HERM Silver 5 BWF C 1 09:34:27.36 1577.559 00:01:04 Yes
7 Polander - IL 0130-AU21-MCLO PIED C 1 09:34:28.22 1577.396 00:01:05 Yes
8 Ed Skwiat - IN 18003-AU21-JEDD Goldy Locks BCH H 1 09:34:28.31 1577.379 00:01:05 Yes
9 Pine Island Pigeon Loft - MA 0152-AU21-VK Reprisal BB H 1 09:34:28.32 1577.378 00:01:05 Yes
10 KT Loft - IN 0549-AU21-KT SILV 0 1 09:34:29.46 1577.163 00:01:06 Yes
11 Armando Lofts - NJ 0612-IF21-BB JuJu BB H 1 09:34:29.48 1577.159 00:01:06 Yes
12 Jax Zhao - FL 30144-AU21-AA BWF H 1 09:34:29.50 1577.155 00:01:06 Yes
13 Freddie Majors - TX 0647-AU21-VK Zahra BB H 1 09:34:30.41 1576.984 00:01:07 Yes
14 Amer Loft - GA 0121-IF21-AFL ,,TITO'' BB C 1 09:34:31.32 1576.812 00:01:08 Yes
15 Fan Family Loft - NS 21203-CU21-CENT Giggles BCH H 1 09:34:32.38 1576.613 00:01:09 Yes
16 Kui's Loft - NY 0619-AU21-ARPU BB H 1 09:34:32.39 1576.611 00:01:09 Yes
17 O And L De Vries - ON 4085-CU21-OL EURO LOON 85 BB H 1 09:34:32.42 1576.605 00:01:09 Yes
18 Pine Island Pigeon Loft - MA 0151-AU21-VK Profound Secret Origin BB C 2 09:34:33.28 1576.443 00:01:10 Yes
19 The Immigrants - SC 0625-AU21-VK MS NIKKI EXPRESS BB H 1 09:34:35.17 1576.087 00:01:12 Yes
20 Ionut Contra - IL 0002-AU21-CONT Stiff Competition BB H 1 09:34:35.18 1576.086 00:01:12 Yes
21 Mesopotamia Loft 2 - CA 0119-AU21-MESO RASHASH BB C 1 09:34:35.20 1576.082 00:01:12 Yes
22 Crapshooters - CA 1045-AU21-NRPL 😂 Crapshooter 5 BB H 1 09:34:36.11 1575.911 00:01:13 Yes
23 Gayle & Ron Ganus - IN 0737-AU21-GFL Top Secret BWF C 1 09:34:36.98 1575.747 00:01:14 Yes
24 Aguero Vasquez Loft - CO 0327-AU21-WIND Free Verse BCWF C 1 09:34:36.99 1575.745 00:01:14 Yes
25 Baldwin & Tillson - NC 1003-AU21-TENT KW-8232(348) BCH H 1 09:34:37.02 1575.739 00:01:14 Yes
26 Wolf & Kornelius - DV 18782-CH21-CH BB H 1 09:34:38.12 1575.532 00:01:15 Yes
27 Dutchman Loft - FL 2104-AU21-DUTC Crypto BB C 1 09:34:38.13 1575.531 00:01:15 Yes
28 Von Marsin-Venus - JA 16304-MX21-FMC BB C 1 09:34:39.07 1575.354 00:01:16 Yes
29 Valdmake Loft - FL 28373-AU21-JEDD BPD H 1 09:34:39.08 1575.352 00:01:16 Yes
30 Schilling 3 - IN 5171-AU21-VK LITTLE MISS NIKKI 5171 BB H 1 09:34:39.96 1575.187 00:01:17 Yes
31 Valdmake Loft - FL 28375-AU21-JEDD SLAT C 2 09:34:39.98 1575.183 00:01:17 Yes
32 Hanna Petroff - WA 0047-AU21-OTC Beauty's Star CHWH H 1 09:34:41.13 1574.967 00:01:18 Yes
33 Kalanianaole Loft - CA 1161-AU21-FVC Cillian DCH C 1 09:34:41.14 1574.965 00:01:18 Yes
34 Cicio's Loft - IL 0077-AU21-CICI Lunar Eclipse BB H 1 09:34:42.08 1574.788 00:01:19 Yes
35 Ionut Contra - IL 0003-AU21-CONT Dominoes Falling BWF C 2 09:34:42.93 1574.628 00:01:20 Yes
36 Chino & Vazquez - FL 2281-AU21-SUNS Scuby doo papá BBWF C 1 09:34:42.94 1574.627 00:01:20 Yes
37 Jodt Loft - WI 1712-AU21-FOYS Stubby BB C 1 09:34:43.81 1574.463 00:01:21 Yes
38 Cicio's Loft - IL 0095-AU21-CICI King Concert BB C 2 09:34:43.83 1574.459 00:01:21 Yes
39 Chai Suen Siu - NY 0564-IF21-SLI Cherished Hope BBWF H 1 09:34:45.70 1574.108 00:01:23 Yes
40 Tko - IN 0058-AU21-ANDY BBSP H 1 09:34:45.72 1574.105 00:01:23 Yes
41 Baczynski Loft - IN 5899-AU21-VK Mr. Cool BB C 1 09:34:46.60 1573.939 00:01:24 Yes
42 Yosvany Ojeda - FL 0063-AU21-YOSV Raven CHOC H 1 09:34:47.62 1573.748 00:01:25 Yes
43 Ganus Family Loft - IN 0714-AU21-GFL BIG BAD WOLF BB C 1 09:34:47.69 1573.735 00:01:25 Yes
44 Von Marsin-Venus - JA 16312-MX21-FMC BB C 2 09:34:48.55 1573.574 00:01:26 Yes
45 Alberta Boys - AB 32902-AU21-ARPU Copper Glow SILV C 1 09:34:48.64 1573.557 00:01:26 Yes
46 Schillings - IN 5161-AU21-VK Little Miss Sun City BB H 2 09:34:48.66 1573.553 00:01:26 Yes
47 Elsa Maria The Real Grk Connection - SC 0227-AU21-GREE ZERO GRAVITY BCH H 1 09:34:48.75 1573.536 00:01:26 Yes
48 Da-Dong - WI 0608-AU21-RAC Dark Secret BB H 1 09:34:49.68 1573.362 00:01:27 Yes
49 Maidelis Loft - FL 0117-AU21-YOSV Merlin-500,000. BCH C 1 09:34:49.70 1573.358 00:01:27 Yes
50 Ling Lu & Tony - VA 1048-AU21-LING BCH C 1 09:34:49.72 1573.354 00:01:27 Yes
51 Schillings - IN 3907-AU21-VK LITTLE MISS NIKKI 2021 BB H 3 09:34:49.73 1573.352 00:01:27 Yes
52 Kondratov - GA 1521-AU21-NEA Invisible BB C 1 09:34:49.82 1573.335 00:01:27 Yes
53 Delmonte Brothers Loft - FL 69144-AU21-ARPU Blue Gaviota BB H 1 09:34:51.92 1572.942 00:01:29 Yes
54 Xiao Loft - WI 0955-AU21-RAC BB C 1 09:34:51.94 1572.938 00:01:29 Yes
55 Napoles Loft - FL 3413-AU21-HRPC Gaby BB H 1 09:34:52.90 1572.758 00:01:30 Yes
56 Mates Loft - GA 0748-AU21-NA BB H 1 09:34:53.95 1572.561 00:01:31 Yes
57 Mike And Joe - NY 3722-IF21-BUFF PENC C 1 09:34:53.97 1572.557 00:01:31 Yes
58 Aztec Loft - DE 0015-AU21-AZTE Consentida 15 CHSP H 1 09:34:54.86 1572.391 00:01:32 Yes
59 Cicio's Loft - IL 0002-AU21-CICI Jig Saw PNWF C 3 09:34:54.88 1572.387 00:01:32 Yes
60 Phala - Phala Lofts - 1577-ZA21-CYRL SILV H 1 09:34:55.72 1572.230 00:01:33 Yes
61 Schillings - IN 5159-AU21-VK Little Miss Thomas 6 BB H 4 09:34:56.75 1572.037 00:01:34 Yes
62 @ Tiwi Pigeons - CA 3787-AU21-FVC Solar Flare DC H 1 09:34:56.77 1572.033 00:01:34 Yes
63 Cicio's Loft - IL 0003-AU21-CICI Wolf Of Wallstreet BB C 4 09:34:56.79 1572.029 00:01:34 Yes
64 A P C Loft - TX 0013-AU21-APC Absolute Bulletproof BB H 1 09:34:57.65 1571.868 00:01:35 Yes
65 Andrew E. Skwiat - IN 0035-AU21-ANDY Blue Valentine BB H 1 09:34:58.55 1571.700 00:01:36 Yes
66 Laduke - NY 15201-AU21-FOYS TwoToms GRIZ H 1 09:34:59.64 1571.496 00:01:37 Yes
67 Dos Hermano - FL 3408-AU21-HRPC Amazona 🐜 BB C 1 09:34:59.65 1571.494 00:01:37 Yes
68 Ganus Family Loft - IN 0740-AU21-GFL HAPPY DAYS BB C 2 09:34:59.73 1571.479 00:01:37 Yes
69 Daleen Erwee - 0231-ZA21-JJJ MAIARA BB H 1 09:35:01.23 1571.199 00:01:38 Yes
70 Hertzog Family Loft - KY 0116-AU21-HERT Golden Moon BB C 1 09:35:01.35 1571.176 00:01:38 Yes
71 Kurpaska Loft - NJ 2001-IF21-E CH H 1 09:35:02.54 1570.954 00:01:40 Yes
72 Rocking 20 Loft - MT 0060-AU21-MCLO Win 44 BB C 1 09:35:02.63 1570.937 00:01:40 Missing
73 Pagalday Loft - FL 21425-AU21-FOYS Piedra fina BB C 1 09:35:03.46 1570.782 00:01:40 Yes
74 Team Yandy And Yasel - FL 0026-AU21-YAND '''CADILLAC'''' BB C 1 09:35:04.45 1570.597 00:01:41 Yes
75 Aztec Loft - DE 0190-AU21-AZTE 31 Blue sky BCH C 2 09:35:05.52 1570.397 00:01:42 Yes
76 Do Drop In Loft - NC 0117-AU21-CHAM Bull Pen BB H 1 09:35:05.61 1570.380 00:01:43 Yes
77 Lillie & Cecil - CA 9963-AU21-JEDD CECIL 1963 x 1809 BB C 1 09:35:05.62 1570.378 00:01:43 Yes
78 Amer Loft - GA 0003-IF21-AFL ,,SEHARA'' SPL H 2 09:35:05.64 1570.374 00:01:43 Yes
79 Rivera & Holguin Loft - FL 0240-AU21-HOLG BB C 1 09:35:05.76 1570.352 00:01:43 Yes
80 Furlano & Rotiroti - ON 21070-CU21-LAKE Autumn Gold BB H 1 09:35:05.77 1570.350 00:01:43 Yes
81 Linda Loft - PA 0033-IF21-LIND 32-501(369-5) BB H 1 09:35:05.78 1570.348 00:01:43 Yes
82 America's Dream Loft - IL 0058-AU21-CICI ONLY THE BEST WILL DO BCH C 1 09:35:06.81 1570.156 00:01:44 Yes
83 Pleasant Task Farm - PA 0201-AU21-PTF Flor x Ally BB H 1 09:35:06.82 1570.154 00:01:44 Yes
84 Andy Nemechek and Gallo Loft - FL 5091-AU21-JEDD You're So Vain BB H 1 09:35:06.85 1570.148 00:01:44 Yes
85 98 M J Loft - PA 0053-AU21-JIAN Golden Essence BB H 1 09:35:06.94 1570.131 00:01:44 Yes
86 Polander - IL 0025-AU21-MCLO DCH H 2 09:35:07.86 1569.960 00:01:45 Yes
87 Thunder Birds Breeding - TX 21525-AU21-WIN Magic - Leo 2.1 BCH H 1 09:35:07.95 1569.943 00:01:45 Yes
88 Seguna Loft - CAN 5019-AU21-ARPU Tyson BB H 1 09:35:08.18 1569.900 00:01:45 Yes
89 Jsrl - CA 0237-AU21-JSRL Do I Do BPD H 1 09:35:08.19 1569.898 00:01:45 Yes
90 Hylek Race Team - IN 1674-AU21-ARPU Joul BCH H 1 09:35:08.21 1569.894 00:01:45 Yes
91 Holts Loft - NC 0512-AU21-HOLT Jack Daniels BB C 1 09:35:09.23 1569.704 00:01:46 Yes
92 Kalanakila - HI 0107-AU21-PONO Laki BBPD H 1 09:35:09.24 1569.702 00:01:46 Yes
93 Champ Camp - IN 0102-AU21-CHAM Run 2 The Limit BB C 1 09:35:09.32 1569.687 00:01:46 Yes
94 Liu s Loft - MO 0503-AU21-BAIZ "FAST COWBOY" BCH H 1 09:35:10.30 1569.504 00:01:47 Yes
95 Ganus Family Loft - IN 0747-AU21-GFL HENRY THE 8TH BB C 3 09:35:10.31 1569.502 00:01:47 Yes
96 Syndicate Lofts - UK 38286-GB21-V BB C 1 09:35:10.40 1569.485 00:01:47 Yes
97 V Racing Loft - NC 7217-IF21-FOYS ***XUNNY*** BB C 1 09:35:11.54 1569.273 00:01:49 Yes
98 Vasquez Lofts - CA 0005-AU21-VL Heels Up Harris BB H 1 09:35:11.63 1569.256 00:01:49 Yes
99 Tko - IN 0819-AU21-GFL BB H 2 09:35:11.64 1569.254 00:01:49 Yes
100 Rocking 20 Loft - MT 0132-AU21-MCLO 44-40 Win BK H 2 09:35:12.62 1569.071 00:01:50 Yes

There are 2490 bird records

Note: These Race Results are unofficial and subject to change until verified by the Race Committee and declared final.